Regional Weather Roundup
Issued by NWS

Home | Current Version | Previous Version | Text Only | Print | Product List | Glossary Off
Versions: 1 2 3 4 5 6 7 8 9 10 11 12 13 14 15 16 17 18 19 20 21 22 23 24 25 26 27 28 29 30 31 32 33 34 35 36 37 38 39 40 41 42 43 44 45 46 47 48 49 50

000
ASUS45 KABQ 252201
RWRNM
NEW MEXICO REGIONAL WEATHER ROUNDUP
NATIONAL WEATHER SERVICE ALBUQUERQUE NM
400 PM MDT SUN JUN 25 2017

NOTE: "FAIR" MEANS FEW OR NO CLOUDS BELOW 12,000 FEET AGL WITH NO
       SIGNIFICANT WEATHER OR OBSTRUCTIONS TO VISION.

      THIS PRODUCT IS RELEASED AS TWO VERSIONS.  ONE VERSION NEAR
      THE TOP OF THE HOUR CONTAINING PRELIMINARY DATA FROM ALBUQUERQUE
      AND OTHER STATIONS.  A FINAL VERSION WITH ADDITIONAL DATA IS
      ISSUED ABOUT 10 MINUTES AFTER THE HOUR.

NMZ501-503-504-510>518-252300-
NORTHWEST PLATEAU/NORTHCENTRAL MOUNTAINS

CITY           SKY/WX    TMP DP  RH WIND       PRES   REMARKS
FARMINGTON     FAIR      94  24   8 W15G28    30.13F
LOS ALAMOS     LGT RAIN  69  53  57 CALM      30.32F
SANTA FE       FAIR      89  41  18 W10G16    30.23F
TAOS           FAIR      84  43  23 SW6G16    30.28F
ANGEL FIRE     FAIR      75  42  30 W17G23    30.38F

$$
NMZ402-403-502-505>509-252300-
WESTCENTRAL MOUNTAINS/SOUTHWEST MOUNTAINS

CITY           SKY/WX    TMP DP  RH WIND       PRES   REMARKS
GALLUP         FAIR      87  33  14 W22G29    30.24S
GRANTS         PTSUNNY   71  47  42 S23G40    30.33R
SILVER CITY    FAIR      86  50  28 S9        30.23F

$$
NMZ407-409-411-412-252300-
SOUTHERN DESERTS

CITY           SKY/WX    TMP DP  RH WIND       PRES   REMARKS
DEMING         FAIR      93  53  25 S13       30.14F
LAS CRUCES     FAIR      93  49  22 S7G17     30.15F
HOLLOMAN AFB   FAIR      95  54  25 S13G21    30.11F
ALAMOGORDO     PTSUNNY   95  52  23 SE8G17    30.12F
T OR C         FAIR      89  50  26 S15       30.15F

$$
NMZ519>523-252300-
CENTRAL VALLEYS/CENTRAL HIGHLANDS

CITY           SKY/WX    TMP DP  RH WIND       PRES   REMARKS
ALBUQUERQUE    PTSUNNY   88  46  23 SW3       30.18F
DOUBLE EAGLE   CLOUDY    84  50  30 SE9       30.23F
MORIARTY ARPT  FAIR      91  47  22 SE8       30.23F
CLINES CORNERS FAIR      83  51  33 S21G26    30.30F
BELEN          NOT AVBL
SOCORRO        FAIR      88  46  23 SW15      30.16F

$$
NMZ524>526-539-540-252300-
SOUTHCENTRAL MOUNTAINS

CITY           SKY/WX    TMP DP  RH WIND       PRES   REMARKS
RUIDOSO        FAIR      77  57  50 SE25G33   30.39S

$$
NMZ527>531-252300-
NORTHEAST HIGHLANDS/NORTHEAST PLAINS

CITY           SKY/WX    TMP DP  RH WIND       PRES   REMARKS
LAS VEGAS      FAIR      72  55  55 SE30G37   30.27F THUNDER
RATON          FAIR      78  55  44 S14G23    30.24F
CLAYTON        FAIR      77  62  59 SW16G26   30.22F

$$
NMZ532>537-252300-
EASTCENTRAL PLAINS

CITY           SKY/WX    TMP DP  RH WIND       PRES   REMARKS
SANTA ROSA     FAIR      84  58  42 S17G28    30.19F
TUCUMCARI      FAIR      84  64  50 S17G25    30.17F
CANNON AFB     FAIR      82  65  57 SE15      30.24F
CLOVIS AIRPORT FAIR      82  62  50 S15       30.24F

$$
NMZ028-029-538-252300-
SOUTHEAST PLAINS

CITY           SKY/WX    TMP DP  RH WIND       PRES   REMARKS
ROSWELL        FAIR      90  57  32 SE18      30.14F
ARTESIA        FAIR      90  59  35 S17G26    30.15F
CARLSBAD       FAIR      89  59  36 S14G22    30.12F
HOBBS          PTSUNNY   86  57  37 E13       30.19F


$$



USA.gov is the U.S. government's official web portal to all federal, state and local government web resources and services.